Wind_Speed
30 29 29 29 30 30 30 30 28 27 24 22 21 20 21 22 24 25 26 28 30 31 31 32 32 34 36 38 40 43 45 46 48 49 51 52 54 56 57 58 58 58 57
31 30 30 31 33 34 34 34 33 31 28 26 24 24 25 26 27 28 29 30 32 33 34 35 35 37 39 41 44 46 48 49 51 52 53 54 56 58 57 56 55 54 52
33 32 32 33 35 36 37 37 37 35 33 31 29 28 29 29 30 30 31 32 33 34 36 37 38 40 43 44 47 49 51 53 54 54 55 56 57 58 57 55 52 49 48
36 35 35 36 37 38 38 39 38 38 37 36 35 33 34 34 35 35 36 36 37 38 40 41 42 44 46 49 51 52 54 55 56 57 57 57 57 56 54 53 51 48 46
38 38 38 39 39 40 40 41 40 40 39 39 39 38 38 39 39 40 41 41 42 44 45 45 46 49 51 52 54 56 57 58 58 58 58 57 57 55 54 52 50 49 49
39 39 39 40 40 41 42 43 43 42 41 41 41 40 41 42 43 45 45 46 48 48 49 50 51 53 55 56 57 58 58 58 58 58 58 57 56 55 54 52 52 52 53
37 37 37 37 38 40 41 42 43 42 42 41 42 42 44 45 47 48 49 50 52 52 53 54 55 56 57 58 58 59 59 58 58 58 57 57 56 55 55 55 55 56 57
33 34 34 34 34 36 37 39 39 40 40 41 42 43 45 48 50 51 52 53 54 55 56 56 56 56 57 58 59 59 59 59 58 58 57 56 56 56 56 57 59 60 61
30 30 31 31 31 32 33 35 37 38 40 41 42 44 46 49 50 51 52 54 55 55 54 53 53 55 57 58 58 58 58 58 57 57 56 55 56 57 58 60 62 64 64
29 29 29 30 30 31 32 34 36 37 39 41 42 45 47 49 51 53 54 53 52 51 51 52 53 55 57 57 58 58 57 56 56 55 55 56 57 59 61 62 64 65 66
28 28 28 29 29 31 33 34 36 38 40 41 43 46 48 51 52 51 49 49 49 50 51 52 54 55 56 56 56 56 55 55 55 56 57 58 60 61 62 63 63 63 63
29 29 29 30 31 33 35 36 37 39 41 42 44 47 49 50 50 50 49 48 49 50 51 52 54 55 55 55 55 54 54 55 56 57 58 59 61 61 61 60 58 56 54
31 32 33 34 35 36 38 39 40 42 44 45 46 48 50 51 51 51 49 48 48 49 51 52 53 53 53 53 53 54 55 56 57 58 59 60 59 58 56 53 49 47 45
34 35 36 37 38 40 41 42 43 44 45 47 48 49 51 51 50 49 48 47 48 50 51 52 52 52 52 52 53 54 56 57 58 59 58 57 55 52 48 44 42 40 38
37 38 39 40 41 43 44 45 46 47 47 48 49 51 50 49 49 48 48 48 48 49 50 50 50 51 51 52 54 55 57 57 57 55 54 51 48 44 41 38 37 35 34
42 42 43 43 44 45 47 47 48 48 48 49 49 50 51 50 49 47 47 47 48 49 49 49 49 50 52 53 55 55 56 55 53 51 48 45 42 39 36 34 32 31 28
45 45 46 46 46 46 47 48 48 47 48 49 49 50 50 48 46 46 46 47 47 47 48 48 50 51 53 54 54 53 52 51 48 45 42 39 37 34 31 29 27 24 20
45 45 45 45 45 45 46 46 46 46 49 49 49 48 46 45 45 45 45 46 46 46 48 49 51 52 52 52 51 49 47 45 43 39 36 33 30 27 25 22 19 15 12
43 42 41 41 41 42 43 43 44 48 49 47 46 45 44 42 43 44 44 45 46 47 49 50 50 50 49 48 46 44 42 39 37 34 30 26 24 21 17 14 11 7 5
40 39 37 37 38 39 41 43 45 46 45 44 43 42 41 41 42 43 44 45 47 48 49 49 48 46 44 42 40 38 36 34 31 28 24 20 16 13 10 7 4 1 1
36 35 34 34 35 38 40 43 43 42 41 40 39 39 39 40 41 43 44 46 47 47 47 46 44 41 38 36 34 32 30 28 25 21 16 12 9 6 4 2 3 4 6
30 30 31 32 34 37 39 39 39 38 37 36 36 37 38 39 41 43 45 45 45 45 43 41 39 35 33 31 29 27 25 22 17 13 9 6 3 3 5 6 7 8 8
25 26 28 30 32 34 35 33 31 30 31 32 34 36 37 40 42 43 43 43 42 41 39 36 33 30 27 26 25 23 19 15 11 7 4 4 5 7 10 11 10 10 10
23 25 26 26 25 25 24 24 26 28 29 31 34 36 38 40 41 42 41 40 38 35 32 30 27 25 23 22 20 17 14 10 6 4 5 7 9 12 12 12 11 11 10
18 18 18 18 18 19 20 22 23 26 29 32 34 37 39 39 39 38 37 35 32 29 27 24 22 20 19 17 15 12 9 6 4 6 8 11 12 13 13 12 11 11 10
11 12 13 14 15 17 18 20 23 27 30 33 35 37 37 37 36 34 31 28 25 23 22 20 18 16 15 13 10 8 6 4 6 9 11 12 13 14 13 12 12 11 10
Wind_Direction
273 272 273 274 274 275 277 279 280 279 277 279 282 288 291 294 296 296 295 293 291 290 289 288 288 289 291 295 299 301 301 300 299 296 293 290 287 285 283 281 279 278 276
271 270 271 272 273 274 275 278 280 279 281 282 284 290 294 294 295 294 293 292 290 287 286 285 285 288 291 295 299 301 301 300 299 297 294 291 288 287 284 282 279 277 276
270 267 269 271 272 273 274 276 280 282 285 285 286 291 293 293 296 294 294 293 290 289 289 287 287 290 293 296 299 300 301 300 299 297 294 291 288 286 285 283 279 277 276
271 269 270 271 272 273 274 276 279 282 286 287 288 292 292 294 295 295 294 294 291 291 291 290 292 294 296 297 299 300 300 299 298 297 295 291 289 285 283 281 279 277 276
272 272 271 272 273 274 275 277 279 281 284 285 286 290 292 293 294 295 295 296 295 293 293 293 295 297 297 298 299 300 300 299 298 296 294 291 288 285 282 279 277 277 278
272 273 273 274 275 275 276 277 278 280 281 282 285 288 291 292 293 295 296 297 297 296 295 295 297 297 298 298 298 299 299 298 297 295 292 290 287 285 282 279 279 279 280
273 274 275 277 277 276 276 277 278 279 281 282 286 289 290 292 293 295 296 297 297 296 296 297 297 297 298 298 298 298 298 297 295 293 291 289 287 285 283 282 281 281 282
275 277 279 280 279 278 278 278 278 280 282 284 287 289 291 293 295 296 296 297 297 296 297 298 297 297 298 297 298 297 297 296 294 292 290 289 288 287 285 284 283 283 283
277 279 281 281 281 280 279 279 280 281 283 286 289 291 294 296 297 297 297 297 297 298 298 298 297 297 297 297 297 297 296 295 293 292 291 290 289 288 287 287 286 285 285
279 281 282 282 282 282 281 281 282 284 286 289 292 295 296 298 298 297 297 297 297 297 298 298 297 297 297 297 297 296 295 294 293 292 292 292 291 290 289 289 288 288 287
280 282 283 284 283 282 283 283 285 288 290 293 295 297 298 298 296 297 298 298 297 298 298 297 297 297 297 297 296 295 295 294 294 294 294 294 293 293 292 292 291 290 289
280 281 283 284 284 285 285 287 288 290 292 295 296 298 297 296 296 297 299 299 299 299 299 298 297 297 297 296 296 295 295 296 296 296 296 296 296 295 294 293 292 291 290
281 282 283 284 285 286 287 289 290 291 293 295 297 297 296 295 297 300 300 299 299 298 298 298 298 298 297 297 297 297 297 298 298 298 299 299 298 297 296 295 293 291 291
282 283 284 284 285 286 288 289 290 292 293 295 295 294 294 295 298 301 301 299 299 299 299 299 298 298 298 299 299 299 300 300 300 301 301 300 299 298 296 295 293 293 292
281 282 283 283 285 286 287 288 289 291 292 294 293 292 292 295 300 301 300 299 299 300 300 299 299 300 300 301 301 302 302 303 303 303 302 301 300 298 296 295 295 294 294
280 281 282 283 284 285 285 286 288 290 291 290 289 289 291 296 299 299 299 300 301 301 301 301 302 303 303 304 304 304 305 305 304 304 303 302 300 298 297 296 295 295 294
279 280 280 281 282 283 283 283 287 289 288 285 285 287 291 295 298 299 300 301 302 302 303 304 305 305 306 306 307 307 307 306 306 305 304 303 301 299 298 297 297 296 294
277 277 278 279 279 280 281 282 284 283 280 280 283 287 291 295 299 300 302 303 304 305 306 307 308 308 309 309 309 309 308 308 308 307 306 305 303 301 300 299 298 299 297
275 275 275 276 277 277 277 277 275 273 273 279 285 290 295 298 301 303 304 305 306 308 309 310 310 311 311 311 311 310 310 310 310 310 309 308 306 305 304 302 301 301 294
274 274 273 273 275 274 273 272 270 270 275 282 287 293 298 302 304 305 307 308 309 310 311 312 313 313 313 312 312 313 313 314 313 312 311 309 308 308 310 311 309 296 159
272 271 271 271 271 270 269 267 269 273 280 286 292 298 302 305 307 308 309 310 311 312 313 313 314 314 314 314 316 316 317 317 316 316 315 315 318 324 338 33 99 114 117
269 268 268 268 266 266 266 267 273 280 287 294 300 304 307 309 310 311 312 312 313 314 315 315 316 316 317 318 320 321 321 322 323 323 327 336 6 54 83 101 110 114 113
267 265 264 264 264 265 268 275 284 292 298 303 306 309 311 312 313 313 314 315 315 316 317 318 319 320 321 322 323 325 327 330 335 344 12 60 84 95 102 105 108 108 106
264 260 261 266 268 272 280 290 297 303 306 309 312 314 314 315 315 316 316 317 317 318 320 321 322 323 324 325 328 330 335 342 360 46 78 93 102 108 106 105 105 104 104
261 261 268 275 282 292 298 303 307 311 314 316 317 317 317 318 319 319 319 320 320 321 322 324 325 326 327 330 333 338 346 3 60 88 99 106 110 111 108 106 103 102 100
269 277 285 294 300 305 310 315 319 321 321 321 321 321 321 322 322 323 323 324 325 326 326 328 329 331 334 338 344 353 12 59 97 104 107 111 113 112 108 104 101 96 93
Height
5863 5862 5861 5860 5859 5858 5856 5854 5851 5849 5847 5845 5843 5842 5840 5838 5836 5834 5831 5829 5826 5823 5820 5817 5814 5811 5807 5803 5799 5794 5789 5784 5779 5773 5768 5762 5756 5751 5745 5741 5736 5732 5729
5857 5856 5856 5854 5853 5851 5849 5847 5844 5841 5839 5837 5836 5834 5833 5830 5828 5826 5823 5821 5817 5814 5811 5807 5804 5801 5797 5793 5788 5783 5777 5771 5766 5760 5754 5749 5743 5735 5730 5726 5721 5717 5714
5850 5850 5849 5848 5846 5844 5842 5840 5837 5834 5831 5829 5827 5826 5824 5822 5820 5817 5815 5812 5808 5805 5801 5798 5794 5790 5785 5781 5776 5770 5765 5758 5751 5745 5739 5733 5727 5721 5715 5710 5707 5703 5700
5842 5842 5842 5840 5839 5837 5835 5832 5830 5827 5824 5822 5819 5817 5816 5813 5811 5808 5805 5802 5798 5794 5791 5787 5782 5778 5773 5768 5763 5757 5751 5744 5737 5730 5724 5718 5711 5706 5702 5697 5693 5690 5687
5834 5834 5833 5832 5830 5829 5827 5824 5822 5819 5817 5814 5811 5809 5806 5804 5801 5798 5794 5791 5787 5783 5779 5775 5770 5765 5760 5755 5749 5743 5736 5729 5722 5715 5708 5702 5696 5691 5687 5684 5680 5677 5674
5825 5825 5824 5823 5822 5820 5818 5815 5813 5810 5808 5806 5803 5800 5797 5794 5791 5787 5783 5779 5775 5771 5767 5762 5757 5752 5747 5741 5734 5728 5721 5714 5707 5700 5693 5687 5682 5677 5672 5669 5666 5663 5660
5816 5816 5815 5814 5812 5810 5808 5806 5804 5801 5799 5796 5794 5791 5787 5784 5780 5776 5772 5767 5763 5758 5754 5749 5744 5738 5733 5726 5720 5713 5706 5699 5693 5686 5679 5673 5668 5663 5658 5655 5651 5648 5644
5807 5807 5806 5804 5803 5801 5799 5796 5794 5792 5789 5787 5784 5781 5777 5773 5769 5764 5760 5755 5750 5745 5741 5736 5730 5724 5718 5712 5705 5698 5691 5685 5678 5672 5666 5659 5654 5649 5644 5639 5635 5631 5628
5799 5798 5797 5795 5794 5792 5790 5787 5785 5783 5780 5777 5774 5770 5766 5762 5757 5752 5747 5742 5738 5732 5727 5722 5716 5711 5704 5697 5690 5684 5677 5670 5663 5657 5651 5646 5640 5635 5629 5623 5618 5613 5609
5791 5790 5788 5786 5785 5783 5781 5778 5776 5773 5770 5767 5764 5759 5755 5750 5745 5740 5736 5731 5725 5720 5715 5709 5703 5697 5690 5683 5676 5669 5662 5656 5649 5643 5637 5631 5625 5619 5612 5606 5600 5594 5588
5782 5781 5780 5778 5776 5774 5772 5769 5766 5763 5760 5757 5753 5748 5743 5738 5733 5728 5723 5718 5713 5708 5702 5696 5689 5683 5677 5670 5663 5655 5648 5642 5635 5628 5622 5616 5609 5603 5595 5588 5582 5575 5569
5774 5772 5771 5769 5767 5765 5762 5759 5756 5753 5749 5746 5741 5737 5732 5727 5722 5716 5711 5706 5701 5695 5689 5683 5676 5670 5663 5656 5649 5642 5635 5628 5621 5614 5607 5600 5593 5586 5578 5571 5564 5558 5552
5765 5763 5762 5760 5757 5755 5752 5749 5746 5742 5739 5735 5730 5725 5720 5715 5710 5705 5699 5694 5689 5683 5676 5670 5664 5657 5650 5643 5636 5629 5621 5614 5606 5599 5591 5584 5576 5569 5562 5555 5549 5544 5539
5755 5754 5752 5749 5747 5745 5741 5738 5735 5731 5727 5723 5719 5714 5709 5704 5698 5693 5688 5682 5676 5670 5664 5657 5651 5644 5636 5629 5622 5615 5607 5599 5592 5583 5575 5567 5560 5554 5547 5542 5536 5532 5528
5745 5743 5741 5739 5737 5734 5731 5727 5724 5720 5716 5711 5707 5702 5697 5692 5687 5682 5676 5670 5664 5658 5652 5645 5638 5630 5623 5616 5608 5600 5592 5585 5577 5569 5560 5553 5546 5540 5535 5531 5526 5522 5518
5734 5732 5730 5728 5726 5723 5719 5716 5712 5708 5704 5700 5695 5690 5685 5680 5675 5670 5664 5659 5652 5646 5639 5632 5625 5617 5610 5602 5594 5586 5578 5570 5562 5555 5547 5540 5534 5529 5525 5520 5516 5513 5509
5722 5720 5718 5717 5714 5712 5708 5704 5701 5697 5693 5688 5683 5678 5673 5668 5664 5659 5653 5647 5641 5634 5627 5619 5612 5604 5597 5589 5581 5572 5564 5556 5549 5542 5535 5529 5524 5519 5515 5512 5508 5505 5503
5710 5708 5707 5705 5703 5700 5697 5694 5690 5686 5682 5677 5672 5667 5662 5657 5653 5647 5641 5635 5629 5622 5614 5607 5599 5591 5583 5576 5567 5559 5551 5544 5537 5531 5525 5520 5515 5511 5508 5505 5502 5500 5498
5697 5696 5695 5694 5692 5689 5687 5683 5680 5675 5670 5665 5661 5656 5651 5646 5641 5636 5630 5623 5616 5609 5602 5594 5587 5579 5571 5563 5556 5548 5541 5534 5528 5522 5517 5512 5508 5505 5502 5500 5498 5497 5496
5685 5685 5684 5683 5681 5679 5676 5673 5669 5664 5660 5655 5651 5646 5641 5636 5630 5624 5618 5611 5604 5597 5590 5583 5576 5568 5560 5553 5546 5539 5532 5526 5520 5515 5511 5507 5504 5501 5499 5498 5497 5496 5496
5675 5675 5674 5673 5672 5670 5667 5663 5659 5655 5651 5646 5641 5636 5631 5625 5619 5613 5607 5600 5593 5586 5579 5572 5566 5559 5551 5545 5538 5532 5526 5520 5515 5510 5507 5504 5502 5500 5498 5497 5497 5497 5497
5666 5666 5665 5664 5663 5660 5657 5653 5649 5645 5642 5637 5632 5627 5621 5615 5609 5603 5596 5589 5582 5575 5569 5562 5556 5549 5543 5537 5532 5526 5520 5515 5511 5507 5505 5503 5501 5500 5499 5499 5499 5499 5500
5658 5658 5657 5656 5654 5652 5649 5645 5641 5638 5634 5629 5624 5618 5612 5606 5599 5593 5586 5579 5572 5566 5559 5553 5547 5542 5537 5532 5527 5522 5517 5513 5509 5506 5504 5503 5502 5502 5502 5502 5502 5503 5503
5652 5651 5650 5649 5647 5644 5641 5638 5635 5631 5626 5621 5616 5610 5604 5597 5590 5583 5576 5570 5563 5557 5551 5546 5541 5537 5532 5527 5523 5519 5515 5512 5509 5507 5506 5505 5504 5505 5505 5506 5506 5507 5507
5647 5646 5645 5643 5641 5639 5636 5633 5629 5625 5620 5614 5608 5602 5595 5588 5581 5574 5568 5562 5556 5550 5546 5541 5537 5533 5528 5524 5520 5517 5514 5511 5510 5509 5508 5508 5508 5509 5509 5510 5510 5511 5511
5644 5643 5642 5640 5638 5635 5632 5628 5624 5619 5614 5608 5601 5594 5587 5580 5573 5567 5562 5555 5550 5546 5541 5537 5533 5529 5526 5522 5519 5516 5514 5512 5511 5511 5511 5511 5512 5513 5513 5514 5514 5514 5514